Weather in Vlasivka

Ukraine / Kirovohrad Region     49°07′13″N   33°16′46″E
temp.,
°C
wind,
m/s
gust,
m/s
humid.,
%
clouds,
%
prec.,
mm/h
press.,
hPa
HPBL,
m
13 june, sun
sun1300:00+17sw22775 0.1 101016
03:00+16ssw35834 0.2 100986
06:00+16ssw3687100 0.3 1008139
09:00+19ssw3782100 0.3 1008230
12:00+23ssw576093 0.3 1008991
15:00+23ssw57578 0.5 1007850
18:00+20wsw237399 1.0 1007194
21:00+18se22805 2.4 100720
14 june, mon
mon1400:00+16ese01877 0.9 100817
03:00+15sse33885 0.9 100837
06:00+15se36907 0.0 1009134
09:00+20se46705 0.0 1010654
12:00+24se45566 0.1 10111592
15:00+25ese555424 0.4 10121811
18:00+24e346243 0.2 1011781
21:00+19ene24837 1.1 101270
15 june, tue
tue1500:00+17nne22868 0.3 101328
03:00+16ene229259 1.5 101326
06:00+17ne35910 0.1 1013111
09:00+21ne357485 0.2 1013397
12:00+25nne34561 1.2 10121474
15:00+26nne345073 1.2 10101935
18:00+23nne226990 0.1 100942
21:00+20e228113 1.4 101031
16 june, wed
wed1600:00+18s228699 2.1 100923
03:00+18se1185100 2.6 100918
06:00+18e1185100 0.0 100920
09:00+21e237484 0.1 1010451
12:00+25e346142 0.8 10101308
15:00+25nne336176 2.5 10101192
18:00+23n567557 3.0 1010584
21:00+20ne51185100 12.1 1011259
17 june, thu
thu1700:00+18ene2394100 3.3 1011134
03:00+17nne599612 5.1 1011320
06:00+18ne61294100 0.4 1012571
09:00+19ene71292100 0.6 1013745
12:00+21e71186100 0.4 1015809
15:00+20ene61194100 4.3 1016751
18:00+21ene688799 0.6 1016697
21:00+18ene51195100 2.8 1017427